STARLINK-1082 (44938 NORAD) Tracking and Keplerian Element Data

This shows tracking and keplerian element data for the satellite.

Feedback or suggestion? Click here.




ElementValue
Catalog44938
NameSTARLINK-1082
Epoch Orbit654
Epoch Day48.58334491
Epoch Year2020
RAAN190.4659
Inclination52.9958
Eccentricity0.0001693
Argument of Perigee43.7823
Mean Anonmoly253.5595
Mean Motion15.73230485
Decay Rate0.00026113
L11 44938U 20001AA 20048.58334491 .00026113 00000-0 18961-3 0 9993
L22 44938 52.9958 190.4659 0001693 43.7823 253.5595 15.73230485 6545

Live tracking and technical data element details for STARLINK-1082 (NORAD 44938). STARLINK-1082 can be tracked NOW for your location showing map with azimuth and elevation plus other details from your city location.

Track the satellite on the map from your city or location and see movement details for azimuth, elevation, latitude, longitude, range, height, and movement on the map or in text.







IsCatalogInMostPopularTable: catalog: 44938, numindb: 7
Update: records affected: 1



GetName: 44938 STARLINK-1082

Hit Count: updated at: Tue, 18 Feb 2020 00:39:45 GMT